Date String (YYYY-MM-DD hh:mm:ss) UTC,Instrument flags,Ambient pressure (hPa),Sample flow (lpm),Bypass flow (lpm),Sample temperature (°C),Ambient temperature (°C),ASC tube jacket temperature (°C),LED temperature (°C),Box temperature (°C),Sample RH (%),Span deviation,Mass concentration (μg/m³),Mass concentration (μg/m³),Mass concentration (μg/m³)
DateTimeUTC,F1_M11,P_M11,Q1_M11,Q2_M11,T1_M11,T2_M11,T3_M11,T4_M11,T5_M11,U1_M11,ZSPAN_M11,X0_M11,X2_M11,X1_M11
2022-03-29 16:00:00,,0810.4,5.02,0.00,27.3,26.3,00.0,36.3,29.0,15.2,0003.2,0014.26,0005.74,0004.57
2022-03-29 16:01:00,,0810.4,4.98,0.00,27.2,26.3,00.0,36.3,29.0,15.4,0002.5,0013.37,0005.72,0004.53
2022-03-29 16:02:00,,0810.4,5.00,0.00,27.2,26.3,00.0,36.3,29.0,15.4,0002.6,0012.80,0005.68,0004.50
2022-03-29 16:03:00,,0810.4,5.02,0.00,27.2,26.4,00.0,36.3,29.0,15.5,0001.6,0013.47,0005.68,0004.46
2022-03-29 16:04:00,,0810.3,5.00,0.00,27.2,26.4,00.0,36.3,29.0,15.7,0002.5,0013.40,0005.56,0004.38
2022-03-29 16:05:00,,0810.4,4.99,0.00,27.2,26.4,00.0,36.3,29.0,15.9,0002.8,0013.30,0005.45,0004.31
2022-03-29 16:06:00,,0810.4,5.01,0.00,27.2,26.3,00.0,36.3,29.0,16.0,0003.2,0013.06,0005.41,0004.27
2022-03-29 16:07:00,,0810.5,4.99,0.00,27.2,26.3,00.0,36.3,29.0,16.0,0000.9,0013.52,0005.41,0004.23
2022-03-29 16:08:00,,0810.5,4.99,0.00,27.2,26.3,00.0,36.3,28.9,16.3,0000.0,0013.28,0005.34,0004.16
2022-03-29 16:09:00,,0810.5,5.02,0.00,27.1,26.2,00.0,36.2,28.9,16.9,0000.0,0013.20,0005.24,0004.04
2022-03-29 16:10:00,,0810.5,4.99,0.00,27.1,26.1,00.0,36.2,28.9,17.1,0000.0,0012.92,0005.07,0003.91
2022-03-29 16:11:00,,0810.5,5.00,0.00,27.1,26.1,00.0,36.2,28.8,17.3,0000.0,0012.54,0004.90,0003.80
2022-03-29 16:12:00,,0810.5,5.00,0.00,27.1,26.1,00.0,36.2,28.8,17.5,0000.0,0012.72,0004.78,0003.66
2022-03-29 16:13:00,,0810.5,4.99,0.00,27.1,26.1,00.0,36.2,28.8,17.6,0000.0,0013.10,0004.66,0003.53
2022-03-29 16:14:00,,0810.5,5.01,0.00,27.1,26.1,00.0,36.2,28.8,17.7,0000.0,0012.52,0004.52,0003.40
2022-03-29 16:15:00,,0810.5,5.00,0.00,27.1,26.1,00.0,36.2,28.8,17.6,0000.0,0012.26,0004.40,0003.29
2022-03-29 16:16:00,,0810.5,5.00,0.00,27.0,26.0,00.0,36.2,28.7,17.3,0000.0,0012.07,0004.35,0003.22
2022-03-29 16:17:00,,0810.5,5.00,0.00,27.0,25.9,00.0,36.1,28.7,17.2,0000.0,0011.99,0004.31,0003.16
2022-03-29 16:18:00,,0810.5,5.01,0.00,26.9,25.8,00.0,36.1,28.6,17.3,0000.0,0011.68,0004.31,0003.08
2022-03-29 16:19:00,,0810.5,4.99,0.00,26.9,25.8,00.0,36.1,28.6,17.3,0000.0,0010.52,0004.23,0002.92
2022-03-29 16:20:00,,0810.5,5.01,0.00,26.9,25.9,00.0,36.1,28.6,17.2,0000.0,0010.67,0004.24,0002.87
2022-03-29 16:21:00,,0810.5,4.99,0.00,26.9,25.9,00.0,36.0,28.6,17.2,0000.0,0010.68,0004.29,0002.92
2022-03-29 16:22:00,,0810.5,4.99,0.00,26.9,25.9,00.0,36.0,28.7,17.2,0000.0,0010.56,0004.30,0002.98
2022-03-29 16:23:00,,0810.5,5.01,0.00,26.9,25.9,00.0,36.0,28.6,17.3,0000.0,0010.15,0004.31,0003.04
2022-03-29 16:24:00,,0810.5,4.99,0.00,26.9,25.9,00.0,36.0,28.6,17.4,0000.0,0009.58,0004.29,0003.09
2022-03-29 16:25:00,,0810.5,5.00,0.00,26.9,25.9,00.0,36.0,28.7,17.3,0000.0,0009.39,0004.30,0003.13
2022-03-29 16:26:00,,0810.5,5.01,0.00,26.9,25.9,00.0,36.0,28.6,17.3,0000.0,0009.57,0004.35,0003.17
2022-03-29 16:27:00,,0810.5,4.99,0.00,26.9,25.9,00.0,36.0,28.6,17.2,0000.0,0010.11,0004.38,0003.19
2022-03-29 16:28:00,,0810.5,5.01,0.00,26.8,25.8,00.0,36.0,28.5,17.2,0000.0,0010.00,0004.37,0003.20
2022-03-29 16:29:00,,0810.5,5.00,0.00,26.8,25.7,00.0,36.0,28.5,17.3,0000.0,0009.68,0004.33,0003.22
2022-03-29 16:30:00,,0810.6,4.99,0.00,26.8,25.7,00.0,35.9,28.5,17.4,0000.0,0009.60,0004.39,0003.25
2022-03-29 16:31:00,,0810.5,5.01,0.00,26.8,25.8,00.0,35.9,28.6,17.4,0000.0,0009.51,0004.39,0003.27
2022-03-29 16:32:00,,0810.5,4.99,0.00,26.8,25.8,00.0,35.9,28.5,17.3,0000.0,0009.66,0004.42,0003.28
2022-03-29 16:33:00,,0810.5,5.00,0.00,26.8,25.8,00.0,35.9,28.5,17.4,0000.0,0009.85,0004.46,0003.29
2022-03-29 16:34:00,,0810.5,5.00,0.00,26.8,25.8,00.0,35.9,28.5,17.4,0000.0,0010.65,0004.49,0003.30
2022-03-29 16:35:00,,0810.5,5.00,0.00,26.8,25.9,00.0,35.9,28.5,17.4,0000.0,0011.21,0004.51,0003.31
2022-03-29 16:36:00,,0810.5,5.01,0.00,26.8,25.9,00.0,35.9,28.5,17.3,0000.0,0011.27,0004.51,0003.30
2022-03-29 16:37:00,,0810.5,4.99,0.00,26.7,25.9,00.0,35.9,28.5,17.4,0000.0,0011.36,0004.47,0003.29
2022-03-29 16:38:00,,0810.4,5.00,0.00,26.7,25.9,00.0,35.9,28.5,17.5,0000.0,0010.73,0004.47,0003.28
2022-03-29 16:39:00,,0810.4,5.02,0.00,26.7,25.9,00.0,35.9,28.5,17.4,0000.0,0010.96,0004.50,0003.27
2022-03-29 16:40:00,,0810.4,5.00,0.00,26.8,25.9,00.0,35.8,28.5,17.3,0000.0,0011.40,0004.48,0003.26
2022-03-29 16:41:00,,0810.4,4.99,0.00,26.8,25.9,00.0,35.8,28.5,17.3,0000.0,0011.22,0004.38,0003.24
2022-03-29 16:42:00,,0810.4,5.00,0.00,26.8,25.9,00.0,35.8,28.6,17.5,0000.0,0011.06,0004.33,0003.24
2022-03-29 16:43:00,,0810.4,5.01,0.00,26.8,25.9,00.0,35.8,28.6,17.6,0000.0,0010.92,0004.32,0003.24
2022-03-29 16:44:00,,0810.4,5.00,0.00,26.8,26.0,00.0,35.8,28.6,17.6,0000.0,0010.65,0004.26,0003.23
2022-03-29 16:45:00,,0810.4,4.99,0.00,26.8,26.0,00.0,35.8,28.6,17.5,0000.0,0009.96,0004.20,0003.22
2022-03-29 16:46:00,,0810.4,4.99,0.00,26.8,26.0,00.0,35.8,28.6,17.4,0000.0,0009.74,0004.24,0003.22
2022-03-29 16:47:00,,0810.4,5.02,0.00,26.8,25.9,00.0,35.8,28.6,17.4,0000.0,0009.88,0004.29,0003.23
2022-03-29 16:48:00,,0810.4,4.99,0.00,26.8,25.9,00.0,35.8,28.5,17.5,0000.0,0009.54,0004.29,0003.24
2022-03-29 16:49:00,,0810.4,5.00,0.00,26.8,25.9,00.0,35.8,28.6,17.7,0000.0,0009.52,0004.25,0003.24
2022-03-29 16:50:00,,0810.3,4.99,0.00,26.8,26.0,00.0,35.8,28.6,17.5,0000.0,0009.78,0004.22,0003.26
2022-03-29 16:51:00,,0810.4,5.01,0.00,26.8,26.0,00.0,35.8,28.5,17.4,0000.0,0010.02,0004.18,0003.27
2022-03-29 16:52:00,,0810.4,4.99,0.00,26.8,26.0,00.0,35.8,28.5,17.4,0000.0,0010.02,0004.22,0003.28
2022-03-29 16:53:00,,0810.4,4.99,0.00,26.8,26.0,00.0,35.8,28.5,17.5,0000.0,0010.05,0004.25,0003.29
2022-03-29 16:54:00,,0810.4,5.01,0.00,26.8,26.0,00.0,35.8,28.5,17.4,0000.0,0010.51,0004.27,0003.29
2022-03-29 16:55:00,,0810.4,5.00,0.00,26.8,26.0,00.0,35.8,28.6,17.4,0000.0,0010.62,0004.28,0003.30
2022-03-29 16:56:00,,0810.4,4.99,0.00,26.8,26.0,00.0,35.8,28.6,17.4,0000.0,0010.69,0004.33,0003.30
2022-03-29 16:57:00,,0810.4,5.02,0.00,26.8,26.0,00.0,35.8,28.6,17.4,0000.0,0010.22,0004.30,0003.30
2022-03-29 16:58:00,,0810.4,5.00,0.00,26.8,26.0,00.0,35.8,28.6,17.4,0000.0,0010.25,0004.24,0003.29
2022-03-29 16:59:00,,0810.5,4.99,0.00,26.8,26.0,00.0,35.8,28.6,17.5,0000.0,0010.47,0004.24,0003.28
